Vertical_Velocity
-4 1 0 -1 -1 -1 -2 -3 -3 -3 -1 -2 -2 -4 -5 -4 -3 -6 -6 -3 -1 -3 2 3 1 2 4 1 0 3 -2 0 -13 12 -4 8 1 -1 1 -4 6 6 -4
-3 -1 1 -2 -2 -3 -5 -5 -2 -2 -1 0 -0 -2 -2 -1 -3 -5 -3 -4 3 -6 1 3 3 -1 2 1 -1 1 3 4 -6 1 3 9 -5 -5 0 -2 12 113 -12
-1 -3 -0 -2 -2 -2 -2 -1 -2 -3 -2 -1 1 1 1 2 -1 -4 -3 -2 1 -1 -2 0 2 2 2 -1 0 1 -3 1 -5 -1 6 -0 1 4 -1 -6 -9 -18 -19
2 -1 -1 -3 -1 -1 -2 -3 -4 -3 -3 -4 -2 1 1 3 -0 -2 -0 -3 -1 -1 2 -1 -0 2 0 -0 -1 -1 -2 1 2 -0 -1 7 -3 0 -2 7 -5 -12 -2
-1 -2 -2 0 -3 -2 -3 -2 -3 -2 -3 -3 -0 3 1 -1 3 -0 1 1 -2 -4 0 1 2 0 2 1 -1 1 3 -0 -2 -1 3 2 -1 -1 -4 0 -4 -4 -2
-2 -2 -2 -3 -2 -1 -3 -3 -2 -2 -3 -3 -0 0 -1 1 3 1 -0 2 2 -4 -7 -0 1 -0 -0 2 1 -1 2 3 0 -3 -1 0 -3 -1 -4 -3 -2 8 5
-3 -4 -2 -1 -3 -3 -0 -2 -3 -4 -3 -2 1 0 1 1 1 1 0 0 2 3 -1 -6 -1 -2 -0 -1 0 0 2 -2 0 0 1 2 0 2 -3 2 2 9 12
-4 -2 -3 -3 -0 -0 -2 -3 -3 -4 -4 -1 -0 1 1 2 0 -0 0 1 0 1 2 5 -5 -4 -3 -0 -0 -2 -2 -2 -5 -1 6 4 -3 3 -8 -2 -8 -4 0
-2 -5 -3 -1 -1 -2 -2 -2 -4 -4 -5 -2 1 1 3 3 0 -0 -1 -0 1 0 -1 -0 2 -4 -3 -4 -5 -3 -5 -4 -5 5 1 3 -2 -2 1 -0 -3 5 15
-5 -3 -1 -3 -4 -5 -4 -3 -2 -1 -1 -1 -0 3 4 3 2 1 0 -0 1 0 1 2 0 0 -1 1 -0 -0 -1 4 1 9 2 -3 0 -2 3 -0 1 4 -2
-2 0 -4 -4 -5 -4 -4 -2 -1 -1 -0 1 2 2 2 1 1 1 2 1 1 -0 -1 -1 -1 -1 -0 -3 -1 2 4 4 3 6 5 -1 -3 -2 2 -1 2 5 -9
0 -2 -3 -3 -3 -2 -0 1 1 1 1 1 2 2 2 1 1 2 3 2 2 1 1 0 -0 -1 -3 -2 1 -1 1 4 2 2 3 6 1 1 2 2 2 2 1
-1 -2 -2 -2 -1 -1 -0 -0 -1 -1 -2 -2 -1 0 0 1 2 1 -1 1 3 3 1 2 2 2 2 2 -1 -3 -3 -3 -2 4 3 3 2 2 -2 3 6 -3 2
-1 -2 -2 -1 -2 -2 -2 -3 -2 -2 -1 -1 -1 -1 -1 -1 -1 -1 -2 -1 -2 -3 -4 -1 2 5 4 3 1 2 2 5 4 -1 0 1 3 6 2 -2 0 -0 -4
-2 -2 -1 -1 -2 -2 -2 -3 -3 -2 -0 1 1 2 2 2 4 5 3 2 1 1 1 -0 -2 -2 -2 -2 -1 1 0 0 0 0 3 1 2 2 -1 -0 -1 -1 0
-1 -1 -1 -1 -2 -1 -1 -0 2 1 1 1 1 1 2 2 1 1 1 1 2 0 -0 -1 -1 -0 1 -0 0 -1 0 0 -1 -1 -0 1 1 0 -0 -2 -1 -0 0
-1 -1 -0 0 0 0 1 2 4 -1 -2 2 3 2 1 1 1 2 2 2 -1 -1 -2 -1 0 0 -1 -1 -0 -1 -1 -2 1 1 3 1 1 -2 -0 1 -0 -2 -5
1 1 -0 -1 -1 -2 -2 -2 -3 -3 -1 6 -0 -2 0 -2 -1 -1 -1 -1 -3 -3 -2 -2 -1 -1 -0 -0 -1 -1 -2 -2 -2 -1 -2 -3 -1 -2 -0 -1 -3 0 1
-2 -2 -1 -1 -0 -1 -1 -1 -2 -2 -2 -2 -3 1 3 2 -1 -1 -3 -2 -1 -0 -1 -1 -3 -3 -3 -3 -2 -2 -0 -0 -1 -1 -3 -2 -1 -1 -5 -5 -3 -6 -3
0 0 -1 -1 -2 -2 -2 -2 -2 -2 -2 -2 2 -5 -3 -3 -3 -5 -3 -4 -5 -3 -3 -2 -1 -1 -1 -2 -3 -3 -3 -4 -3 -3 -2 -2 -2 -3 -3 -2 -3 -3 -5
0 -0 -2 -0 -1 -1 -1 -1 -2 -1 -2 -4 -5 7 -9 -4 -5 -4 -5 -4 -4 -5 -5 -4 -3 -2 -2 -2 -2 -2 -2 -4 -5 -5 -6 -6 -5 -4 -6 -5 -5 -6 -6
2 1 2 -0 -1 -1 -2 -1 -1 -1 -2 -2 -5 -8 8 -4 -5 -4 -5 -4 -4 -4 -3 -3 -3 -2 -1 -2 -2 -2 -3 -2 -2 -2 -3 -6 -7 -7 -5 -6 -6 -7 -7
1 1 -0 0 -1 0 -1 -2 -2 -1 -3 -3 -3 -3 -5 -4 -4 -4 -5 -6 -5 -3 -3 -3 -4 -3 -3 -2 -3 -3 -2 -3 -3 -3 -2 -4 -3 -2 -4 -6 -7 -6 -7
2 -1 -1 -1 1 -2 -0 -2 -1 -1 1 -2 -2 -3 -3 -4 -4 -4 -3 -3 -3 -3 -4 -4 -4 -3 -3 -3 -3 -4 -4 -4 -4 -2 -5 -5 -6 -7 -8 -8 -4 -4 -3
1 1 0 -0 -2 -0 1 0 -0 -1 -2 -2 -2 -2 -2 -2 -2 -2 -2 -1 -1 -1 -2 -3 -3 -4 -5 -5 -5 -4 -3 -3 -3 -5 -5 -8 -6 -6 -6 -5 -4 -3 -4
-1 -1 -1 -1 -0 0 0 0 -0 -1 0 0 0 1 1 0 1 -1 -1 -0 -1 -1 -2 -2 -2 -3 -4 -5 -4 -5 -5 -4 -4 -4 -3 -3 -3 -3 -4 -3 -5 -4 -3
Height
5629 5626 5624 5622 5618 5615 5610 5606 5601 5595 5589 5584 5580 5575 5573 5570 5566 5563 5560 5556 5550 5544 5541 5540 5541 5544 5547 5550 5555 5560 5564 5569 5575 5583 5588 5594 5600 5608 5612 5618 5625 5632 5635
5620 5618 5615 5612 5607 5603 5598 5593 5587 5582 5576 5570 5565 5561 5558 5556 5553 5551 5549 5545 5541 5534 5528 5528 5529 5531 5535 5537 5541 5546 5551 5556 5561 5566 5574 5578 5583 5588 5595 5602 5614 5613 5622
5611 5609 5605 5601 5596 5590 5584 5577 5571 5565 5559 5553 5547 5543 5540 5539 5538 5538 5537 5534 5531 5525 5518 5516 5518 5520 5523 5526 5529 5533 5538 5542 5546 5550 5559 5563 5567 5570 5576 5584 5595 5608 5611
5601 5598 5594 5588 5582 5575 5568 5561 5554 5547 5541 5535 5531 5527 5524 5523 5524 5525 5525 5523 5521 5517 5510 5506 5507 5509 5511 5514 5517 5521 5525 5528 5531 5534 5540 5546 5548 5553 5557 5568 5578 5589 5588
5591 5587 5581 5574 5567 5560 5553 5547 5540 5534 5527 5522 5517 5514 5512 5511 5511 5513 5513 5512 5511 5507 5503 5497 5496 5498 5500 5502 5505 5508 5511 5514 5518 5518 5521 5528 5533 5537 5543 5551 5561 5573 5578
5580 5574 5568 5561 5555 5549 5542 5536 5529 5523 5517 5510 5505 5502 5501 5501 5502 5503 5503 5503 5502 5498 5496 5492 5488 5486 5487 5489 5493 5496 5497 5500 5502 5504 5504 5511 5517 5522 5529 5536 5545 5556 5558
5569 5563 5558 5552 5546 5539 5533 5526 5520 5514 5506 5499 5495 5493 5493 5494 5495 5496 5496 5495 5494 5493 5489 5486 5482 5482 5480 5481 5482 5484 5484 5484 5485 5487 5489 5495 5503 5508 5517 5524 5528 5534 5543
5559 5555 5550 5544 5538 5532 5525 5519 5513 5506 5498 5492 5489 5488 5489 5489 5490 5490 5490 5489 5488 5486 5484 5481 5479 5475 5473 5473 5474 5472 5471 5470 5470 5470 5473 5480 5488 5494 5501 5508 5515 5523 5529
5554 5549 5544 5540 5533 5526 5519 5513 5508 5502 5496 5490 5487 5486 5485 5485 5485 5485 5484 5483 5482 5480 5479 5478 5474 5472 5469 5466 5464 5463 5462 5461 5460 5459 5462 5469 5476 5482 5488 5495 5501 5507 5512
5549 5546 5543 5537 5530 5524 5517 5511 5507 5502 5498 5493 5489 5486 5484 5483 5481 5480 5479 5478 5476 5474 5472 5470 5468 5467 5466 5463 5460 5456 5455 5454 5454 5453 5455 5460 5465 5471 5477 5483 5487 5490 5495
5547 5545 5541 5536 5531 5526 5520 5515 5510 5505 5500 5496 5492 5489 5486 5484 5482 5479 5477 5474 5471 5468 5466 5463 5461 5460 5458 5457 5455 5453 5449 5447 5446 5447 5447 5450 5456 5460 5465 5472 5473 5478 5481
5546 5543 5540 5537 5533 5528 5524 5519 5514 5509 5505 5501 5497 5493 5490 5488 5485 5483 5479 5475 5471 5468 5466 5462 5459 5455 5452 5450 5447 5446 5445 5442 5439 5439 5441 5442 5447 5450 5453 5457 5460 5461 5465
5544 5542 5539 5537 5533 5530 5525 5521 5516 5512 5508 5504 5501 5498 5495 5492 5489 5486 5482 5478 5475 5472 5469 5465 5461 5457 5453 5448 5444 5441 5438 5435 5434 5432 5432 5434 5436 5438 5441 5444 5446 5448 5451
5542 5540 5538 5535 5532 5529 5525 5521 5517 5514 5510 5507 5503 5500 5497 5494 5491 5487 5483 5480 5477 5473 5470 5466 5462 5458 5454 5450 5445 5441 5437 5434 5431 5428 5425 5424 5424 5425 5427 5429 5431 5433 5435
5541 5539 5536 5534 5531 5528 5525 5521 5518 5515 5511 5508 5505 5501 5498 5494 5491 5487 5484 5480 5477 5473 5469 5465 5461 5457 5452 5448 5444 5439 5436 5432 5429 5426 5422 5420 5418 5416 5416 5415 5416 5419 5420
5539 5537 5534 5531 5529 5525 5522 5519 5517 5513 5510 5507 5503 5500 5496 5493 5489 5485 5481 5477 5473 5468 5464 5460 5456 5452 5448 5444 5440 5436 5432 5428 5424 5420 5416 5413 5412 5410 5407 5405 5405 5405 5404
5536 5534 5531 5528 5525 5522 5519 5517 5514 5510 5506 5503 5499 5495 5491 5487 5483 5479 5475 5471 5466 5462 5457 5453 5448 5444 5440 5435 5431 5427 5423 5419 5415 5412 5409 5406 5404 5402 5399 5397 5394 5391 5389
5532 5529 5527 5524 5521 5518 5514 5511 5507 5504 5500 5497 5492 5487 5483 5478 5474 5469 5464 5460 5455 5451 5446 5441 5437 5432 5427 5423 5418 5414 5410 5405 5401 5397 5394 5391 5388 5385 5383 5380 5379 5378 5376
5527 5525 5522 5519 5515 5512 5508 5505 5501 5497 5493 5489 5484 5480 5475 5470 5464 5459 5453 5447 5442 5437 5431 5426 5421 5417 5412 5407 5403 5398 5394 5390 5386 5383 5379 5375 5372 5369 5366 5363 5360 5357 5355
5521 5519 5515 5512 5508 5505 5501 5497 5493 5489 5484 5480 5475 5469 5463 5458 5452 5447 5441 5436 5430 5423 5417 5410 5405 5399 5394 5389 5384 5380 5376 5372 5368 5364 5360 5356 5353 5349 5346 5342 5339 5336 5333
5514 5511 5507 5504 5500 5496 5492 5488 5484 5479 5474 5468 5463 5458 5451 5445 5439 5433 5427 5420 5413 5407 5401 5394 5388 5382 5376 5371 5365 5360 5355 5351 5347 5342 5338 5333 5329 5326 5322 5318 5315 5311 5308
5505 5502 5499 5494 5490 5486 5482 5478 5473 5467 5462 5456 5450 5444 5439 5432 5425 5419 5412 5406 5399 5392 5386 5379 5372 5365 5359 5353 5348 5342 5337 5332 5326 5321 5316 5312 5308 5303 5298 5293 5288 5284 5280
5496 5492 5488 5484 5480 5476 5472 5467 5461 5456 5450 5444 5437 5431 5424 5418 5411 5404 5398 5391 5384 5377 5370 5363 5357 5350 5344 5338 5331 5326 5320 5314 5309 5303 5297 5291 5284 5279 5274 5269 5265 5260 5254
5486 5482 5478 5474 5470 5466 5461 5455 5450 5444 5438 5431 5425 5418 5411 5404 5397 5390 5383 5376 5368 5361 5354 5347 5340 5334 5327 5320 5314 5308 5302 5295 5289 5283 5276 5270 5264 5258 5251 5244 5237 5231 5226
5476 5472 5468 5464 5459 5454 5449 5443 5437 5431 5425 5418 5411 5405 5398 5390 5383 5375 5367 5360 5352 5344 5337 5330 5323 5316 5308 5302 5295 5288 5281 5274 5266 5259 5252 5246 5239 5233 5227 5221 5216 5211 5205
5465 5461 5456 5452 5447 5442 5436 5430 5424 5418 5412 5405 5398 5391 5383 5376 5368 5360 5352 5344 5336 5328 5320 5313 5305 5297 5289 5281 5273 5265 5257 5250 5242 5235 5228 5222 5216 5211 5205 5200 5195 5191 5187